EW0195 Weather Reports


time (UTC)temp
C
wind
direction
speed
KPH
gust
KPH
rain 1hr
cm
rain 24hr
cm
rain mn
cm
humidity
%
barometer
mb
20260504081451 7 316 3.2 8.0 0.00 0.00 0.00 64 1014.8
20260504045956 9 316 3.2 8.0 0.00 0.00 0.00 54 1014.7
20260504042953 9 300 3.2 8.0 0.00 0.00 0.00 54 1014.8
20260504041453 9 304 3.2 8.0 0.00 0.00 0.00 53 1014.5
20260504035956 9 347 4.8 8.0 0.00 0.00 0.00 54 1014.5
20260504032953 10 302 3.2 8.0 0.00 0.00 0.00 53 1014.4
20260504031452 10 302 3.2 6.4 0.00 0.00 0.00 52 1014.3
20260504024452 10 304 1.6 4.8 0.00 0.00 0.00 52 1014.2
20260504022952 10 310 1.6 6.4 0.00 0.00 0.00 51 1014.2
20260504021452 10 300 1.6 3.2 0.00 0.00 0.00 51 1014.2
20260504014452 10 293 1.6 4.8 0.00 0.00 0.00 51 1014.2
20260504012953 10 282 0.0 1.6 0.00 0.00 0.00 51 1014.0
20260504011453 11 290 1.6 4.8 0.00 0.00 0.00 49 1013.9
20260504004452 11 295 0.0 3.2 0.00 0.00 0.00 48 1013.6
20260504002953 11 293 1.6 3.2 0.00 0.00 0.00 46 1013.5
20260503235956 12 302 1.6 3.2 0.00 0.00 0.00 44 1013.1
20260503232953 13 339 3.2 9.7 0.00 0.00 0.00 40 1012.9
20260503231452 13 338 1.6 4.8 0.00 0.00 0.00 42 1012.9
20260503221452 14 356 3.2 14.5 0.00 0.00 0.00 39 1012.8
20260503214453 15 59 4.8 12.9 0.00 0.00 0.00 39 1012.8
20260503211453 15 348 4.8 22.5 0.00 0.00 0.00 38 1012.7
20260503205956 15 277 6.4 22.5 0.00 0.00 0.00 35 1012.8
20260503204452 14 335 6.4 29.0 0.00 0.00 0.00 37 1012.8
20260503202953 15 338 4.8 16.1 0.00 0.00 0.00 38 1012.8
20260503201452 14 311 6.4 20.9 0.00 0.00 0.00 37 1013.0
20260503195956 13 46 6.4 22.5 0.00 0.00 0.00 42 1013.2
20260503194453 13 350 8.0 22.5 0.00 0.00 0.00 40 1013.4
20260503192952 13 17 8.0 19.3 0.00 0.00 0.00 40 1013.4
20260503191452 13 40 8.0 24.1 0.00 0.00 0.00 41 1013.6
20260503185956 13 34 8.0 19.3 0.00 0.00 0.00 41 1013.7
20260503184452 13 359 6.4 17.7 0.00 0.00 0.00 42 1013.9
20260503182952 12 314 8.0 24.1 0.00 0.00 0.00 44 1014.0
20260503175958 12 49 8.0 30.6 0.00 0.00 0.00 41 1014.1
20260503174454 12 62 6.4 24.1 0.00 0.00 0.00 47 1014.2
20260503172953 11 7 8.0 27.4 0.00 0.00 0.00 43 1014.3